CW7174 Weather Reports


Display with metric or nautical units.
time (UTC)temp
F
wind
direction
speed
MPH
gust
MPH
rain 1hr
in
rain 24hr
in
rain mn
in
humidity
%
barometer
mb
20200402105437 37 315 4.0 6.0 0.00 0.00 0.00 76 1007.2
20200402104933 37 22 2.0 6.0 0.00 0.00 0.00 76 1007.2
20200402104420 37 180 3.0 6.0 0.00 0.00 0.00 76 1007.2
20200402103907 36 315 2.0 7.0 0.00 0.00 0.00 76 1007.2
20200402103404 36 292 3.0 7.0 0.00 0.00 0.00 76 1007.3
20200402102903 36 270 2.0 6.0 0.00 0.00 0.00 76 1007.3
20200402102341 37 270 3.0 9.0 0.00 0.00 0.00 76 1007.3
20200402101827 37 338 3.0 9.0 0.00 0.00 0.00 76 1007.3
20200402101321 37 315 1.0 5.0 0.00 0.00 0.00 76 1007.2
20200402100814 37 270 3.0 7.0 0.00 0.00 0.00 76 1007.2
20200402100312 37 292 4.0 7.0 0.00 0.00 0.00 76 1007.2
20200402095803 37 315 3.0 7.0 0.00 0.00 0.00 76 1007.3
20200402095240 37 270 3.0 7.0 0.00 0.00 0.00 76 1007.3
20200402094737 36 45 2.0 6.0 0.00 0.00 0.00 76 1007.2
20200402094236 36 270 1.0 6.0 0.00 0.00 0.00 76 1007.2
20200402093727 36 338 2.0 7.0 0.00 0.00 0.00 76 1007.2
20200402093214 37 90 3.0 9.0 0.00 0.00 0.00 76 1007.3
20200402092701 37 292 3.0 9.0 0.00 0.00 0.00 76 1007.3
20200402091144 37 338 3.0 7.0 0.00 0.00 0.00 75 1007.2
20200402090615 37 270 4.0 10.0 0.00 0.00 0.00 75 1007.2
20200402090113 37 315 2.0 4.0 0.00 0.00 0.00 75 1007.2
20200402085600 37 338 2.0 8.0 0.00 0.00 0.00 75 1007.2
20200402085042 37 315 3.0 10.0 0.00 0.00 0.00 75 1007.2
20200402084537 37 0 3.0 10.0 0.00 0.00 0.00 75 1007.1
20200402084033 37 0 4.0 8.0 0.00 0.00 0.00 75 1007.1
20200402083535 37 338 2.0 7.0 0.00 0.00 0.00 75 1007.2
20200402083017 38 202 2.0 6.0 0.00 0.00 0.00 74 1007.2
20200402082512 38 270 3.0 7.0 0.00 0.00 0.00 74 1007.3
20200402082009 38 202 2.0 8.0 0.00 0.00 0.00 73 1007.3
20200402081455 38 270 3.0 8.0 0.00 0.00 0.00 73 1007.3
20200402080934 38 338 2.0 8.0 0.00 0.00 0.00 73 1007.4
20200402080428 38 315 3.0 8.0 0.00 0.00 0.00 73 1007.4
20200402075923 38 315 3.0 9.0 0.00 0.00 0.00 73 1007.4
20200402075420 38 338 4.0 9.0 0.00 0.00 0.00 73 1007.4
20200402074910 38 202 2.0 8.0 0.00 0.00 0.00 73 1007.6
20200402074406 38 248 4.0 7.0 0.00 0.00 0.00 73 1007.6
20200402073856 38 0 4.0 7.0 0.00 0.00 0.00 73 1007.6
20200402073351 38 315 4.0 7.0 0.00 0.00 0.00 73 1007.5
20200402072829 38 0 3.0 7.0 0.00 0.00 0.00 72 1007.5
20200402072322 39 68 4.0 11.0 0.00 0.00 0.00 71 1007.4
20200402071814 39 22 5.0 11.0 0.00 0.00 0.00 71 1007.4
20200402071250 39 292 3.0 9.0 0.00 0.00 0.00 71 1007.4
20200402070740 39 338 6.0 9.0 0.00 0.00 0.00 71 1007.4
20200402070224 39 270 4.0 8.0 0.00 0.00 0.00 71 1007.4
20200402065721 39 270 4.0 8.0 0.00 0.00 0.00 71 1007.5
20200402065207 40 22 3.0 6.0 0.00 0.00 0.00 70 1007.5
20200402064147 40 0 4.0 7.0 0.00 0.00 0.00 69 1007.6
20200402063626 40 292 4.0 8.0 0.00 0.00 0.00 68 1007.6
20200402063125 40 248 4.0 8.0 0.00 0.00 0.00 67 1007.6
20200402062604 40 338 4.0 9.0 0.00 0.00 0.00 67 1007.6
20200402062106 41 22 5.0 9.0 0.00 0.00 0.00 66 1007.7
20200402061604 41 315 4.0 11.0 0.00 0.00 0.00 65 1007.7
20200402061048 41 45 5.0 11.0 0.00 0.00 0.00 64 1007.7
20200402060524 41 315 4.0 9.0 0.00 0.00 0.00 64 1007.7
20200402060009 41 270 4.0 11.0 0.00 0.00 0.00 64 1007.7
20200402055454 41 338 5.0 11.0 0.00 0.00 0.00 64 1007.7
20200402054950 41 0 4.0 11.0 0.00 0.00 0.00 63 1007.7
20200402054443 42 292 2.0 7.0 0.00 0.00 0.00 62 1007.5
20200402053939 42 248 3.0 7.0 0.00 0.00 0.00 62 1007.5
20200402053433 42 270 3.0 8.0 0.00 0.00 0.00 62 1007.6
20200402052921 42 270 4.0 8.0 0.00 0.00 0.00 62 1007.6
20200402052416 42 248 2.0 7.0 0.00 0.00 0.00 62 1007.6
20200402051904 42 338 3.0 7.0 0.00 0.00 0.00 61 1007.6
20200402051347 42 338 4.0 7.0 0.00 0.00 0.00 61 1007.6
20200402050844 42 202 3.0 8.0 0.00 0.00 0.00 61 1007.6
20200402050337 42 158 3.0 8.0 0.00 0.00 0.00 61 1007.6
20200402045825 42 0 3.0 7.0 0.00 0.00 0.00 61 1007.6
20200402045258 42 248 3.0 6.0 0.00 0.00 0.00 61 1007.6
20200402044736 43 225 2.0 6.0 0.00 0.00 0.00 61 1007.6
20200402044224 42 248 4.0 6.0 0.00 0.00 0.00 61 1007.6
20200402043718 42 338 2.0 6.0 0.00 0.00 0.00 62 1007.7
20200402043220 42 315 2.0 6.0 0.00 0.00 0.00 62 1007.7
20200402042711 42 225 1.0 3.0 0.00 0.00 0.00 62 1007.7
20200402042209 42 292 0.0 4.0 0.00 0.00 0.00 63 1007.6
20200402041707 42 315 1.0 5.0 0.00 0.00 0.00 63 1007.6
20200402041135 42 338 1.0 5.0 0.00 0.00 0.00 62 1007.7
20200402040622 42 248 0.0 6.0 0.00 0.00 0.00 63 1007.7
20200402040117 42 270 1.0 6.0 0.00 0.00 0.00 63 1007.7
20200402035555 42 225 0.0 3.0 0.00 0.00 0.00 63 1007.7
20200402035046 43 315 0.0 3.0 0.00 0.00 0.00 61 1007.7
20200402034517 43 248 0.0 2.0 0.00 0.00 0.00 59 1007.7
20200402034015 43 292 0.0 0.0 0.00 0.00 0.00 58 1007.7
20200402033452 43 292 0.0 2.0 0.00 0.00 0.00 58 1007.7
20200402032940 43 292 0.0 4.0 0.00 0.00 0.00 57 1007.7
20200402032435 44 292 1.0 4.0 0.00 0.00 0.00 57 1007.8
20200402031902 44 270 0.0 5.0 0.00 0.00 0.00 58 1007.8
20200402031359 44 248 2.0 5.0 0.00 0.00 0.00 57 1007.8
20200402030847 44 338 1.0 5.0 0.00 0.00 0.00 58 1007.8
20200402030344 44 315 1.0 5.0 0.00 0.00 0.00 58 1007.8
20200402025833 44 315 1.0 5.0 0.00 0.00 0.00 59 1007.7
20200402025331 44 292 2.0 5.0 0.00 0.00 0.00 59 1007.7
20200402024831 44 112 2.0 6.0 0.00 0.00 0.00 59 1007.7
20200402024303 44 135 3.0 7.0 0.00 0.00 0.00 60 1007.7
20200402023759 44 248 3.0 7.0 0.00 0.00 0.00 60 1007.7
20200402023246 44 0 4.0 6.0 0.00 0.00 0.00 60 1007.6
20200402022736 44 0 2.0 6.0 0.00 0.00 0.00 60 1007.6
20200402022228 44 225 1.0 5.0 0.00 0.00 0.00 60 1007.7
20200402021722 45 338 1.0 6.0 0.00 0.00 0.00 59 1007.7
20200402021221 44 270 3.0 6.0 0.00 0.00 0.00 58 1007.7
20200402020705 44 315 2.0 5.0 0.00 0.00 0.00 59 1007.7
20200402020148 44 315 1.0 6.0 0.00 0.00 0.00 59 1007.7
20200402015644 45 45 2.0 6.0 0.00 0.00 0.00 58 1007.8
20200402015115 45 270 2.0 11.0 0.00 0.00 0.00 58 1007.8
20200402014612 45 225 3.0 11.0 0.00 0.00 0.00 57 1007.8
20200402014112 45 22 3.0 11.0 0.00 0.00 0.00 56 1007.8
20200402013554 45 315 4.0 11.0 0.00 0.00 0.00 56 1007.8
20200402013052 44 270 4.0 9.0 0.00 0.00 0.00 56 1007.8
20200402012532 44 270 2.0 4.0 0.00 0.00 0.00 57 1007.8
20200402012023 44 338 2.0 4.0 0.00 0.00 0.00 57 1007.8
20200402011513 43 338 1.0 4.0 0.00 0.00 0.00 58 1007.8
20200402011013 44 270 1.0 4.0 0.00 0.00 0.00 58 1007.8
20200402010506 43 45 1.0 3.0 0.00 0.00 0.00 60 1007.8
20200402005920 44 292 0.0 3.0 0.00 0.00 0.00 60 1007.9
20200402005413 43 22 0.0 3.0 0.00 0.00 0.00 61 1007.9
20200402004910 44 248 0.0 4.0 0.00 0.00 0.00 61 1007.9
20200402004407 43 292 1.0 4.0 0.00 0.00 0.00 62 1007.9
20200402003859 43 68 0.0 5.0 0.00 0.00 0.00 61 1007.9
20200402003340 43 338 1.0 5.0 0.00 0.00 0.00 61 1007.9
20200402002819 43 22 2.0 5.0 0.00 0.00 0.00 60 1007.9
20200402002310 44 0 0.0 4.0 0.00 0.00 0.00 58 1007.8
20200402001745 43 292 0.0 0.0 0.00 0.00 0.00 59 1007.8
20200402001231 44 315 0.0 0.0 0.00 0.00 0.00 58 1007.6
20200402000720 44 315 0.0 0.0 0.00 0.00 0.00 56 1007.6
20200402000340 44 270 0.0 0.0 0.00 0.00 0.00 56 1007.6
20200401235703 44 292 0.0 0.0 0.00 0.00 0.00 55 1007.6
20200401235138 44 292 0.0 0.0 0.00 0.00 0.00 54 1007.6
20200401234614 45 338 0.0 3.0 0.00 0.00 0.00 55 1007.4
20200401234109 45 338 0.0 3.0 0.00 0.00 0.00 53 1007.4
20200401233608 45 292 0.0 2.0 0.00 0.00 0.00 52 1007.3
20200401233103 46 315 0.0 2.0 0.00 0.00 0.00 52 1007.3
20200401232549 46 338 0.0 0.0 0.00 0.00 0.00 50 1007.3
20200401232038 47 22 0.0 4.0 0.00 0.00 0.00 49 1007.2
20200401231530 47 270 1.0 4.0 0.00 0.00 0.00 49 1007.2
20200401231027 47 0 1.0 4.0 0.00 0.00 0.00 47 1007.1
20200401230524 48 0 2.0 5.0 0.00 0.00 0.00 47 1007.1
20200401230007 48 338 2.0 5.0 0.00 0.00 0.00 46 1007.1
20200401225506 48 270 3.0 4.0 0.00 0.00 0.00 46 1007.1
20200401225001 48 338 2.0 4.0 0.00 0.00 0.00 46 1007.1
20200401224459 49 22 2.0 4.0 0.00 0.00 0.00 45 1007.1
20200401223952 49 292 1.0 4.0 0.00 0.00 0.00 44 1007.1
20200401223444 49 292 2.0 4.0 0.00 0.00 0.00 44 1007.1
20200401222937 49 0 1.0 4.0 0.00 0.00 0.00 43 1007.1
20200401222432 50 22 2.0 4.0 0.00 0.00 0.00 43 1007.0
20200401221923 50 292 3.0 7.0 0.00 0.00 0.00 42 1007.0
20200401221402 50 22 4.0 8.0 0.00 0.00 0.00 42 1007.0
20200401220852 50 45 4.0 8.0 0.00 0.00 0.00 43 1007.0
20200401220346 51 292 2.0 7.0 0.00 0.00 0.00 43 1007.0
20200401215820 51 225 3.0 7.0 0.00 0.00 0.00 42 1007.0
20200401215316 51 22 3.0 6.0 0.00 0.00 0.00 42 1007.0
20200401214815 51 315 4.0 8.0 0.00 0.00 0.00 42 1006.9
20200401214250 51 315 5.0 8.0 0.00 0.00 0.00 42 1006.9
20200401213745 51 270 3.0 9.0 0.00 0.00 0.00 42 1006.9
20200401213245 51 0 4.0 9.0 0.00 0.00 0.00 43 1006.9
20200401212724 51 22 3.0 7.0 0.00 0.00 0.00 42 1006.9
20200401212215 51 338 3.0 6.0 0.00 0.00 0.00 42 1006.8
20200401211710 51 292 3.0 6.0 0.00 0.00 0.00 41 1006.8
20200401211206 51 180 2.0 6.0 0.00 0.00 0.00 42 1006.8
20200401210706 51 0 3.0 8.0 0.00 0.00 0.00 42 1006.8
20200401210152 51 22 4.0 8.0 0.00 0.00 0.00 42 1006.8
20200401205649 51 270 5.0 8.0 0.00 0.00 0.00 42 1006.9
20200401205149 51 22 3.0 8.0 0.00 0.00 0.00 42 1006.9
20200401204644 51 112 3.0 8.0 0.00 0.00 0.00 42 1006.9
20200401204139 51 22 6.0 8.0 0.00 0.00 0.00 42 1006.9
20200401203635 52 22 4.0 7.0 0.00 0.00 0.00 41 1006.9
20200401203111 51 68 5.0 7.0 0.00 0.00 0.00 41 1006.9
20200401202608 51 270 4.0 7.0 0.00 0.00 0.00 42 1006.9
20200401202107 52 225 4.0 8.0 0.00 0.00 0.00 43 1006.9
20200401201607 52 22 3.0 9.0 0.00 0.00 0.00 42 1006.9
20200401201048 51 292 5.0 9.0 0.00 0.00 0.00 42 1007.0
20200401200538 51 315 5.0 9.0 0.00 0.00 0.00 42 1007.0
20200401200037 52 0 4.0 8.0 0.00 0.00 0.00 42 1007.1
20200401195523 51 0 4.0 8.0 0.00 0.00 0.00 42 1007.1
20200401195023 52 0 4.0 9.0 0.00 0.00 0.00 42 1007.1
20200401194511 51 270 4.0 9.0 0.00 0.00 0.00 42 1007.2
20200401194004 52 22 5.0 9.0 0.00 0.00 0.00 43 1007.2
20200401193446 51 338 4.0 8.0 0.00 0.00 0.00 43 1007.4
20200401192937 51 202 6.0 9.0 0.00 0.00 0.00 43 1007.4
20200401192423 51 0 5.0 9.0 0.00 0.00 0.00 43 1007.4
20200401191902 52 315 4.0 7.0 0.00 0.00 0.00 42 1007.4
20200401191350 52 315 3.0 6.0 0.00 0.00 0.00 43 1007.4
20200401190848 51 0 4.0 9.0 0.00 0.00 0.00 43 1007.5
20200401190327 51 315 6.0 11.0 0.00 0.00 0.00 43 1007.5
20200401185828 51 22 6.0 11.0 0.00 0.00 0.00 43 1007.7
20200401185318 51 22 6.0 10.0 0.00 0.00 0.00 44 1007.7
20200401184812 50 292 4.0 11.0 0.00 0.00 0.00 43 1007.8
20200401184301 50 22 6.0 13.0 0.00 0.00 0.00 43 1007.8
20200401183759 51 45 6.0 13.0 0.00 0.00 0.00 43 1007.8
20200401183245 51 22 6.0 11.0 0.00 0.00 0.00 44 1008.0
20200401182742 51 180 6.0 11.0 0.00 0.00 0.00 44 1008.0
20200401182225 51 90 7.0 9.0 0.00 0.00 0.00 44 1008.2
20200401181716 51 68 7.0 9.0 0.00 0.00 0.00 44 1008.2
20200401181209 51 0 4.0 10.0 0.00 0.00 0.00 43 1008.4
20200401180652 50 338 6.0 10.0 0.00 0.00 0.00 43 1008.4
20200401180141 50 22 5.0 9.0 0.00 0.00 0.00 45 1008.4
20200401175630 50 22 6.0 9.0 0.00 0.00 0.00 44 1008.3
20200401175110 50 0 5.0 9.0 0.00 0.00 0.00 44 1008.3
20200401174607 50 45 6.0 15.0 0.00 0.00 0.00 46 1008.6
20200401174052 50 22 8.0 13.0 0.00 0.00 0.00 45 1008.6
20200401173536 50 338 5.0 8.0 0.00 0.00 0.00 45 1008.7
20200401173025 50 45 5.0 8.0 0.00 0.00 0.00 48 1008.7
20200401172519 50 68 6.0 8.0 0.00 0.00 0.00 47 1008.7
20200401172021 49 315 4.0 9.0 0.00 0.00 0.00 49 1008.9
20200401171457 48 22 5.0 11.0 0.00 0.00 0.00 50 1008.9
20200401170947 49 292 6.0 11.0 0.00 0.00 0.00 47 1008.9
20200401170441 48 22 6.0 11.0 0.00 0.00 0.00 48 1008.9
20200401165932 49 315 6.0 11.0 0.00 0.00 0.00 50 1009.2
20200401165420 48 315 6.0 10.0 0.00 0.00 0.00 49 1009.2
20200401164911 48 0 5.0 12.0 0.00 0.00 0.00 50 1009.2
20200401164354 49 0 5.0 12.0 0.00 0.00 0.00 50 1009.2
20200401163841 48 315 5.0 9.0 0.00 0.00 0.00 51 1009.2
20200401163337 47 90 6.0 9.0 0.00 0.00 0.00 52 1009.3
20200401162824 47 270 6.0 11.0 0.00 0.00 0.00 53 1009.3
20200401162316 47 22 6.0 11.0 0.00 0.00 0.00 52 1009.4
20200401161809 47 45 5.0 10.0 0.00 0.00 0.00 52 1009.4
20200401161247 47 315 6.0 11.0 0.00 0.00 0.00 54 1009.6
20200401160737 46 0 7.0 11.0 0.00 0.00 0.00 54 1009.6
20200401160232 46 315 8.0 13.0 0.00 0.00 0.00 54 1009.6
20200401155723 47 338 7.0 13.0 0.00 0.00 0.00 53 1009.8
20200401155221 47 315 6.0 11.0 0.00 0.00 0.00 54 1009.8
20200401154714 46 68 7.0 11.0 0.00 0.00 0.00 54 1010.0
20200401154215 46 292 7.0 17.0 0.00 0.00 0.00 54 1010.0
20200401153653 46 112 8.0 17.0 0.00 0.00 0.00 53 1010.2
20200401153152 46 45 6.0 11.0 0.00 0.00 0.00 53 1010.2
20200401152646 47 45 7.0 11.0 0.00 0.00 0.00 54 1010.2
20200401152143 46 270 6.0 11.0 0.00 0.00 0.00 57 1010.4
20200401151643 45 112 7.0 11.0 0.00 0.00 0.00 57 1010.4
20200401151136 44 180 7.0 13.0 0.00 0.00 0.00 59 1010.3
20200401150627 45 112 8.0 13.0 0.00 0.00 0.00 60 1010.3
20200401150119 44 22 7.0 11.0 0.00 0.00 0.00 62 1010.3
20200401145616 44 22 7.0 12.0 0.00 0.00 0.00 62 1010.4
20200401145108 44 22 8.0 13.0 0.00 0.00 0.00 61 1010.4
20200401144608 44 22 8.0 13.0 0.00 0.00 0.00 62 1010.4
20200401144053 44 0 9.0 13.0 0.00 0.00 0.00 63 1010.4
20200401143551 44 45 8.0 13.0 0.00 0.00 0.00 64 1010.6
20200401143043 44 90 6.0 13.0 0.00 0.00 0.00 64 1010.6
20200401142531 44 22 8.0 13.0 0.00 0.00 0.00 64 1010.6
20200401142009 44 0 5.0 12.0 0.00 0.00 0.00 66 1010.8
20200401141507 43 315 7.0 12.0 0.00 0.00 0.00 67 1010.8
20200401140959 43 112 7.0 15.0 0.00 0.00 0.00 66 1010.9
20200401140437 43 292 8.0 15.0 0.00 0.00 0.00 67 1010.9
20200401135932 43 0 6.0 15.0 0.00 0.00 0.00 68 1010.9
20200401135432 43 22 8.0 15.0 0.00 0.00 0.00 67 1010.9
20200401134924 42 68 7.0 11.0 0.00 0.00 0.00 69 1010.9
20200401134413 42 22 6.0 11.0 0.00 0.00 0.00 69 1011.0
20200401133907 42 22 9.0 11.0 0.00 0.00 0.00 69 1011.0
20200401133406 42 22 6.0 13.0 0.00 0.00 0.00 68 1011.2
20200401132857 41 112 6.0 13.0 0.00 0.00 0.00 71 1011.2
20200401132356 42 0 5.0 11.0 0.00 0.00 0.00 72 1011.1
20200401131856 40 45 6.0 9.0 0.00 0.00 0.00 73 1011.1
20200401131337 41 112 6.0 9.0 0.00 0.00 0.00 72 1011.1
20200401130838 41 158 5.0 9.0 0.00 0.00 0.00 73 1010.9
20200401130320 40 0 5.0 13.0 0.00 0.00 0.00 73 1010.9
20200401125805 40 90 6.0 13.0 0.00 0.00 0.00 74 1011.2
20200401125257 40 22 6.0 12.0 0.00 0.00 0.00 73 1011.2
20200401124749 40 22 6.0 12.0 0.00 0.00 0.00 73 1011.2
20200401124230 39 22 5.0 11.0 0.00 0.00 0.00 77 1011.2
20200401123729 38 112 6.0 11.0 0.00 0.00 0.00 78 1011.2
20200401123226 38 90 4.0 8.0 0.00 0.00 0.00 79 1011.4
20200401122717 36 112 6.0 15.0 0.00 0.00 0.00 81 1011.4
20200401122206 36 0 8.0 15.0 0.00 0.00 0.00 82 1011.0
20200401121657 36 22 7.0 14.0 0.00 0.00 0.00 82 1011.0
20200401121154 36 22 6.0 11.0 0.00 0.00 0.00 82 1010.7
20200401120653 36 338 5.0 11.0 0.00 0.00 0.00 82 1010.7
20200401120137 36 22 6.0 12.0 0.00 0.00 0.00 83 1010.7
20200401115653 35 180 7.0 12.0 0.00 0.00 0.00 83 1010.9
20200401115126 35 22 5.0 13.0 0.00 0.00 0.00 84 1010.9
20200401114617 35 338 7.0 13.0 0.00 0.00 0.00 84 1010.9
20200401114110 35 45 5.0 12.0 0.00 0.00 0.00 84 1010.9
20200401113556 35 0 7.0 12.0 0.00 0.00 0.00 84 1010.9
20200401113034 35 0 6.0 13.0 0.00 0.00 0.00 85 1010.9
20200401112533 35 45 5.0 13.0 0.00 0.00 0.00 85 1010.9
20200401112023 35 45 5.0 12.0 0.00 0.00 0.00 85 1010.6
20200401111512 35 338 6.0 12.0 0.00 0.00 0.00 85 1010.6
20200401110959 34 22 4.0 9.0 0.00 0.00 0.00 85 1010.5
20200401110459 34 22 5.0 9.0 0.00 0.00 0.00 85 1010.5
20200401105959 34 315 4.0 8.0 0.00 0.00 0.00 86 1010.4